Location: Hermaringen
(48.5952°N, 10.2585°E)
Time: 09:16:28
(UTC+00:00)

Injun/Solrad 3 - Pass Details

Date: 18 February 2026
Orbit: 872 x 984 km, 66.8° (Epoch: 9 March)

Event Time Altitude Azimuth Distance (km) Brightness Sun altitude
Rises 18:15:01 0° 325° (NW) 3,558 11.5 -15.5°
Reaches altitude 10° 18:17:35 10° 330° (NNW) 2,630 10.7 -15.9°
Maximum altitude 18:23:36 55° 48° (NE) 1,127 8.1 -16.9°
Enters shadow 18:27:15 25° 116° (ESE) 1,841 8.9 -17.5°
